Meteo Giornale » Osservazioni meteo Spagna » La Coruna-Alvedro
ore: 23:30 - Osservazioni Meteo La Coruna-Alvedro
Lat. 43° 18' N Lon. 8° 23' W Alt. 97 metri s.l.m.
18 °C
Sereno
Temp. 24 Ore
13 °C
24 °C
Nord
1.8 Km/h
Dew point 16 °C
Umidità 88 %
Visibilità 10 Km
Il sole sorge alle ore 07:58
Il sole tramonta alle ore 21:07
| Data e Ora | Cielo e Fenomeni | T °C | DP °C | Um. % | Pres. hPa | Vis. km | Vento km/h | |
|---|---|---|---|---|---|---|---|---|
| Ieri h: 23:30 | Sereno | 18 | 16 | 88 | 1022 | 10 | N 1.8 | |
| Ieri h: 23:00 | Poco Nuvoloso | 19 | 16 | 82 | 1022 | 10 | N 3.7 | |
| Ieri h: 22:30 | Poco Nuvoloso | 19 | 16 | 82 | 1022 | 10 | N 1.8 | |
| Ieri h: 22:00 | Nuvoloso | 19 | 16 | 82 | 1021 | 10 | N 3.7 | |
| Ieri h: 21:30 | Sereno | 20 | 16 | 77 | 1021 | 10 | N 3.7 | |
| Ieri h: 21:00 | Sereno | 20 | 16 | 77 | 1021 | 10 | O/NO 7.4 | |
| Ieri h: 20:30 | Sereno | 21 | 17 | 77 | 1021 | 10 | O/NO 9.3 | |
| Ieri h: 20:00 | Sereno | 22 | 17 | 73 | 1021 | 10 | NO 11.1 | |
| Ieri h: 19:30 | Sereno | 23 | 16 | 64 | 1021 | 10 | N 11.1 | |
| Ieri h: 19:00 | Sereno | 23 | 16 | 64 | 1021 | 10 | N 13 | |
| Ieri h: 18:30 | Sereno | 22 | 16 | 68 | 1020 | 10 | N 14.8 | |
| Ieri h: 18:00 | Sereno | 22 | 17 | 73 | 1021 | 10 | N 16.7 | |
| Ieri h: 17:30 | Poco Nuvoloso | 22 | 17 | 73 | 1021 | 10 | N 18.5 | |
| Ieri h: 17:00 | Poco Nuvoloso | 22 | 17 | 73 | 1021 | 10 | N 18.5 | |
| Ieri h: 16:30 | Poco Nuvoloso | 22 | 17 | 73 | 1021 | 10 | N 22.2 | |
| Ieri h: 16:00 | Poco Nuvoloso | 23 | 17 | 68 | 1020 | 10 | N 20.3 | |
| Ieri h: 15:30 | Poco Nuvoloso | 24 | 17 | 64 | 1021 | 10 | N 18.5 | |
| Ieri h: 15:00 | Poco Nuvoloso | 23 | 17 | 68 | 1020 | 10 | N 16.7 | |
| Ieri h: 14:30 | Nuvoloso | 24 | 17 | 64 | 1021 | 10 | N 11.1 | |
| Ieri h: 14:00 | Poco Nuvoloso | 24 | 17 | 64 | 1021 | 10 | N 5.5 | |
| Ieri h: 13:30 | Poco Nuvoloso | 22 | 17 | 73 | 1021 | 10 | N 11.1 | |
| Ieri h: 13:00 | Nuvoloso | 22 | 17 | 73 | 1022 | 10 | N 11.1 | |
| Ieri h: 12:30 | Nuvoloso | 21 | 16 | 73 | 1022 | 10 | N 11.1 | |
| Ieri h: 12:00 | Nuvoloso | 21 | 16 | 73 | 1022 | 10 | N/NE 7.4 | |
| Ieri h: 11:30 | Poco Nuvoloso | 20 | 16 | 77 | 1022 | 10 | N 5.5 | |
| Ieri h: 10:30 | Nuvoloso | 18 | 16 | 88 | 1022 | 10 | N 0 | |
| Ieri h: 10:00 | Molto Nuvoloso | 15 | 14 | 93 | 1022 | 10 | N 5.5 | |
| Ieri h: 09:30 | Molto Nuvoloso | 14 | 13 | 93 | 1022 | 10 | S 7.4 | |
| Ieri h: 09:00 | Nuvoloso | 14 | 13 | 93 | 1021 | 10 | N 1.8 | |
| Ieri h: 08:30 | Nuvoloso | 13 | 13 | 100 | 1021 | 10 | N 3.7 | |
| Ieri h: 08:00 | Sereno | 13 | 13 | 100 | 1021 | 10 | N 1.8 | |
| Ieri h: 07:30 | Poco Nuvoloso | 13 | 13 | 100 | 1021 | 6 | N 5.5 | |
| Ieri h: 07:25 | Banco di nebbia | 13 | 13 | 100 | 1021 | 2 | N 5.5 | |
| Ieri h: 07:00 | Nebbia | 13 | 13 | 100 | 1021 | 0.6 | S/SE 7.4 | |
| Ieri h: 06:30 | Nebbia | 13 | 13 | 100 | 1021 | 0.5 | S/SE 7.4 | |
| Ieri h: 06:23 | Nebbia | 13 | 13 | 100 | 1021 | 0.8 | S/SE 7.4 | |
| Ieri h: 06:00 | Banco di nebbia | 14 | 13 | 93 | 1021 | 2 | N 5.5 | |
| Ieri h: 05:30 | Banco di nebbia | 14 | 13 | 93 | 1021 | 2 | N 3.7 | |
| Ieri h: 05:00 | Sereno | 14 | 13 | 93 | 1021 | 10 | N 5.5 | |
| Ieri h: 04:30 | Sereno | 14 | 13 | 93 | 1021 | 10 | N 1.8 | |
| Ieri h: 04:00 | Sereno | 15 | 13 | 87 | 1021 | 10 | N 0 | |
| Ieri h: 03:30 | Sereno | 15 | 14 | 93 | 1022 | 10 | N 1.8 | |
| Ieri h: 03:00 | Sereno | 16 | 14 | 87 | 1022 | 10 | N 0 | |
| Ieri h: 02:30 | Sereno | 16 | 15 | 93 | 1022 | 10 | N 3.7 | |
| Ieri h: 02:00 | Sereno | 16 | 14 | 87 | 1022 | 10 | N 5.5 | |
| Ieri h: 01:30 | Sereno | 17 | 15 | 88 | 1022 | 10 | N 1.8 | |
| Ieri h: 01:00 | Poco Nuvoloso | 17 | 15 | 88 | 1022 | 10 | N 3.7 | |



